DMSP 5D-2 F13 DEB, 42325

Orbit data source: Space-Track

DMSP 5D-2 F13 DEB, 42325 is space debris in SSO originally from a launch on Fri, 24 Mar 1995 UTC launched from the Air Force Western Test Range (AFWTR). Debris objects in space refer to the collection of defunct objects orbiting the Earth. Examples of debris include non-operational satellites, rocket bodies, and fragments generated from explosions, collisions, or faulty payload assembly.

Loading next visibility...
Identifier
42325, 1995-015JT
Orbit
SSO
Country
Flag of USUS
Related business
Manufacturer
Unknown
Mission
Spacecraft
Bus & Motor
Unknown
Mass
Unknown
Launch date (UTC)
1995-03-24 (31 years ago)
Launch vehicle
Unknown
Launch site
Air Force Western Test Range (AFWTR)
Object type
Payload
Rocket body
Debris
Shape & HBR
Unknown shape, 0.1 m
Radar Cross Section
Small (<0.1 m²)

Expand to show TLE details & history
Last TLE update: 16 hours ago

TLE from 16 hours ago
0 DMSP 5D-2 F13 DEB
1 42325U 95015JT  26118.56637242  .00006159  00000-0  18556-2 0  9997
2 42325  98.7166 164.7140 0007697 280.6456  79.3866 14.42887703545612
Epoch: 2026-04-28T13:35Z
TLE epoch observation values (Epoch: 2026-04-28T13:35:34.577Z)
Latitude
-0.00001°
Longitude
104.28009°
Altitude
750.912 km
Speed
7.48 km/s
True Right ascension
10h 58m 51s
True Declination
0° 00' 00"
Sunlit
Object was in full shadow at epoch
Visualization orbit readout
Latitude
Unknown
Longitude
Unknown
Altitude
Unknown
Speed
Unknown
Apparent Right ascension
Unknown
Apparent Declination
Unknown
Sunlit
N/A
Visualization observer readout
Local Sidereal Time
13:08:41
Azimuth
Unknown
Elevation
Unknown
Doppler factor
Unknown
Orbital elements
Apogee altitude
751.585 km
Perigee altitude
740.618 km
Semi-major axis
7,124.239 km
Eccentricity
0.00077
Inclination
98.7166°
RAAN
164.714°
Arg. of periapsis
280.6456°
True anomaly
79.47331°
Mean anomaly
79.3866°
Eccentric anomaly
79.42995°
Mean motion
3.6094 °/min
Orbital period
99.74 mins
BSTAR
0.0018556
Loading maneuver chart data...
Computing Atmospheric mass density...

Documentation

Showing up to 5 results
|